EN

Hourly Weather Ladyzhin

Today, 1 August, Sunday

Time Temperature Precipitation Wind Pressure Humidity
00:00 +20°C° 0.4 mm 1 mps 745 mmHg 88%
01:00 +20°C° 0.4 mm 1 mps 745 mmHg 91%
02:00 +20°C° 0.4 mm 1 mps 746 mmHg 94%
03:00 +20°C° 0.2 mm 1 mps 745 mmHg 94%
04:00 +20°C° 0.2 mm 1 mps 745 mmHg 94%
05:00 +20°C° 0.2 mm 1 mps 745 mmHg 94%
06:00 +21°C° 0 mm 1 mps 745 mmHg 90%
07:00 +22°C° 0 mm 1 mps 746 mmHg 86%
08:00 +23°C° 0 mm 1 mps 746 mmHg 82%
09:00 +25°C° 0 mm 2 mps 746 mmHg 73%
10:00 +26°C° 0 mm 2 mps 746 mmHg 63%
11:00 +28°C° 0 mm 2 mps 746 mmHg 54%
12:00 +29°C° 0 mm 2 mps 746 mmHg 51%
13:00 +30°C° 0 mm 2 mps 746 mmHg 47%
14:00 +31°C° 0 mm 2 mps 745 mmHg 44%
15:00 +30°C° 0 mm 2 mps 745 mmHg 45%
16:00 +30°C° 0 mm 2 mps 745 mmHg 46%
17:00 +30°C° 0 mm 2 mps 745 mmHg 47%
18:00 +28°C° 0 mm 1 mps 745 mmHg 52%
19:00 +27°C° 0 mm 1 mps 745 mmHg 58%
20:00 +25°C° 0 mm 1 mps 744 mmHg 63%
21:00 +24°C° 0 mm 1 mps 744 mmHg 66%
22:00 +23°C° 0 mm 1 mps 744 mmHg 68%
23:00 +23°C° 0 mm 2 mps 744 mmHg 71%

Tomorrow, 2 August, Monday

Time Temperature Precipitation Wind Pressure Humidity
00:00 +21°C° 0 mm 2 mps 744 mmHg 73%
01:00 +21°C° 0 mm 2 mps 744 mmHg 75%
02:00 +21°C° 0 mm 2 mps 744 mmHg 77%
03:00 +21°C° 0 mm 2 mps 743 mmHg 78%
04:00 +21°C° 0 mm 2 mps 743 mmHg 79%
05:00 +21°C° 0 mm 2 mps 742 mmHg 79%
06:00 +22°C° 0.1 mm 3 mps 742 mmHg 75%
07:00 +25°C° 0.1 mm 3 mps 742 mmHg 70%
08:00 +26°C° 0.1 mm 4 mps 742 mmHg 65%
09:00 +28°C° 0 mm 4 mps 742 mmHg 59%
10:00 +29°C° 0 mm 4 mps 742 mmHg 53%
11:00 +30°C° 0 mm 4 mps 742 mmHg 47%
12:00 +32°C° 0 mm 5 mps 742 mmHg 45%
13:00 +32°C° 0 mm 5 mps 742 mmHg 44%
14:00 +33°C° 0 mm 6 mps 741 mmHg 42%
15:00 +30°C° 0 mm 7 mps 742 mmHg 49%
16:00 +28°C° 0 mm 7 mps 742 mmHg 56%
17:00 +26°C° 0 mm 8 mps 742 mmHg 62%
18:00 +23°C° 0 mm 7 mps 743 mmHg 67%
19:00 +21°C° 0 mm 6 mps 743 mmHg 72%
20:00 +17°C° 0 mm 5 mps 744 mmHg 76%
21:00 +17°C° 0 mm 5 mps 745 mmHg 80%
22:00 +17°C° 0 mm 4 mps 745 mmHg 84%
23:00 +16°C° 0 mm 3 mps 745 mmHg 89%

Day after tomorrow, 3 August, Tuesday

Time Temperature Precipitation Wind Pressure Humidity
00:00 +16°C° 0 mm 3 mps 746 mmHg 90%
01:00 +14°C° 0 mm 3 mps 746 mmHg 92%
02:00 +14°C° 0 mm 3 mps 746 mmHg 93%
03:00 +14°C° 0 mm 3 mps 746 mmHg 94%
04:00 +14°C° 0 mm 3 mps 747 mmHg 95%
05:00 +14°C° 0 mm 3 mps 747 mmHg 96%
06:00 +16°C° 0 mm 3 mps 747 mmHg 87%
07:00 +18°C° 0 mm 3 mps 748 mmHg 79%
08:00 +20°C° 0 mm 3 mps 748 mmHg 70%
09:00 +21°C° 0.3 mm 3 mps 748 mmHg 66%
10:00 +22°C° 0.3 mm 3 mps 748 mmHg 63%
11:00 +24°C° 0.3 mm 3 mps 748 mmHg 60%
12:00 +23°C° 0.3 mm 4 mps 748 mmHg 55%
13:00 +25°C° 0.3 mm 4 mps 748 mmHg 49%
14:00 +25°C° 0.3 mm 4 mps 748 mmHg 44%
15:00 +25°C° 0 mm 4 mps 749 mmHg 45%
16:00 +25°C° 0 mm 4 mps 749 mmHg 45%
17:00 +25°C° 0 mm 4 mps 749 mmHg 45%
18:00 +22°C° 0 mm 3 mps 749 mmHg 50%
19:00 +21°C° 0 mm 3 mps 749 mmHg 54%
20:00 +20°C° 0 mm 2 mps 750 mmHg 59%
21:00 +19°C° 0 mm 2 mps 750 mmHg 62%
22:00 +18°C° 0 mm 2 mps 750 mmHg 64%
23:00 +17°C° 0 mm 2 mps 750 mmHg 67%

4 August, Wednesday

Time Temperature Precipitation Wind Pressure Humidity
00:00 +16°C° 0 mm 2 mps 750 mmHg 70%
01:00 +15°C° 0 mm 2 mps 751 mmHg 73%
02:00 +15°C° 0 mm 2 mps 751 mmHg 75%
03:00 +15°C° 0 mm 2 mps 751 mmHg 76%
04:00 +14°C° 0 mm 2 mps 751 mmHg 77%
05:00 +14°C° 0 mm 1 mps 751 mmHg 77%
06:00 +16°C° 0 mm 2 mps 751 mmHg 71%
07:00 +18°C° 0 mm 2 mps 752 mmHg 64%
08:00 +20°C° 0 mm 2 mps 752 mmHg 58%
09:00 +21°C° 0 mm 2 mps 752 mmHg 52%
10:00 +24°C° 0 mm 2 mps 752 mmHg 47%
11:00 +26°C° 0 mm 2 mps 752 mmHg 41%
12:00 +26°C° 0 mm 2 mps 752 mmHg 38%
13:00 +27°C° 0 mm 2 mps 751 mmHg 36%
14:00 +28°C° 0 mm 2 mps 751 mmHg 33%
15:00 +28°C° 0 mm 2 mps 751 mmHg 34%
16:00 +28°C° 0 mm 1 mps 751 mmHg 35%
17:00 +28°C° 0 mm 1 mps 751 mmHg 36%
18:00 +26°C° 0 mm 1 mps 751 mmHg 41%
19:00 +24°C° 0 mm 1 mps 751 mmHg 46%
20:00 +23°C° 0 mm 2 mps 750 mmHg 51%
21:00 +21°C° 0 mm 2 mps 750 mmHg 54%
22:00 +20°C° 0 mm 2 mps 750 mmHg 58%
23:00 +19°C° 0 mm 2 mps 750 mmHg 61%

5 August, Thursday

Time Temperature Precipitation Wind Pressure Humidity
00:00 +19°C° 0.4 mm 2 mps 750 mmHg 70%
01:00 +18°C° 0.4 mm 2 mps 750 mmHg 78%
02:00 +17°C° 0.4 mm 2 mps 750 mmHg 86%
03:00 +17°C° 0.1 mm 2 mps 749 mmHg 87%
04:00 +17°C° 0.1 mm 3 mps 749 mmHg 88%
05:00 +17°C° 0.1 mm 3 mps 749 mmHg 89%
06:00 +17°C° 0.3 mm 4 mps 748 mmHg 89%
07:00 +18°C° 0.3 mm 4 mps 748 mmHg 90%
08:00 +17°C° 0.3 mm 5 mps 748 mmHg 90%
09:00 +20°C° 0.1 mm 6 mps 747 mmHg 82%
10:00 +22°C° 0.1 mm 6 mps 747 mmHg 74%
11:00 +24°C° 0.1 mm 7 mps 747 mmHg 67%
12:00 +27°C° 0 mm 6 mps 746 mmHg 60%
13:00 +29°C° 0 mm 6 mps 746 mmHg 53%
14:00 +32°C° 0 mm 6 mps 745 mmHg 46%
15:00 +32°C° 0 mm 5 mps 745 mmHg 45%
16:00 +32°C° 0 mm 5 mps 745 mmHg 44%
17:00 +32°C° 0 mm 4 mps 744 mmHg 43%
18:00 +29°C° 0.1 mm 3 mps 744 mmHg 51%
19:00 +27°C° 0.1 mm 3 mps 743 mmHg 60%
20:00 +24°C° 0.1 mm 2 mps 743 mmHg 68%
21:00 +24°C° 0.7 mm 2 mps 743 mmHg 75%
22:00 +23°C° 0.7 mm 2 mps 743 mmHg 81%
23:00 +21°C° 0.7 mm 2 mps 743 mmHg 88%

6 August, Friday

Time Temperature Precipitation Wind Pressure Humidity
00:00 +21°C° 0.9 mm 2 mps 743 mmHg 90%
01:00 +20°C° 0.9 mm 3 mps 742 mmHg 92%
02:00 +20°C° 0.9 mm 3 mps 742 mmHg 95%
03:00 +20°C° 0.2 mm 4 mps 742 mmHg 94%
04:00 +20°C° 0.2 mm 4 mps 742 mmHg 94%
05:00 +20°C° 0.2 mm 5 mps 741 mmHg 94%
06:00 +21°C° 0.1 mm 5 mps 741 mmHg 91%
07:00 +21°C° 0.1 mm 5 mps 742 mmHg 87%
08:00 +22°C° 0.1 mm 4 mps 742 mmHg 84%
09:00 +21°C° 0.8 mm 5 mps 742 mmHg 86%
10:00 +20°C° 0.8 mm 5 mps 742 mmHg 88%
11:00 +20°C° 0.8 mm 5 mps 743 mmHg 90%
12:00 +20°C° 0.2 mm 5 mps 743 mmHg 85%
13:00 +20°C° 0.2 mm 5 mps 744 mmHg 80%
14:00 +20°C° 0.2 mm 4 mps 744 mmHg 74%
15:00 +21°C° 0 mm 4 mps 744 mmHg 69%
16:00 +22°C° 0 mm 4 mps 744 mmHg 63%
17:00 +23°C° 0 mm 4 mps 744 mmHg 57%
18:00 +22°C° 0 mm 3 mps 744 mmHg 60%
19:00 +21°C° 0 mm 2 mps 745 mmHg 62%
20:00 +20°C° 0 mm 2 mps 745 mmHg 64%
21:00 +19°C° 0 mm 2 mps 745 mmHg 68%
22:00 +18°C° 0 mm 2 mps 745 mmHg 71%
23:00 +18°C° 0 mm 2 mps 746 mmHg 74%
Show more